Wind_Speed
36 40 37 32 28 24 23 24 27 28 28 28 27 28 30 31 34 36 36 37 37 36 36 36 36 37 36 35 35 36 37 36 36 35 33 33 31 28 28 28 29 30 30
39 37 29 24 23 23 24 25 24 23 24 25 28 30 30 32 33 35 37 37 36 36 35 35 34 33 33 32 33 33 33 34 34 35 32 30 27 25 27 28 28 29 30
37 32 22 22 26 26 26 25 22 22 24 24 26 28 29 30 31 32 34 37 38 39 38 39 38 37 36 34 33 33 33 32 32 33 33 32 29 30 30 31 32 33 32
31 23 20 26 29 26 20 21 23 26 26 25 24 24 25 27 29 31 32 34 36 39 41 41 41 40 39 37 35 34 34 33 31 32 34 36 33 31 32 35 35 33 32
23 23 24 27 27 21 19 21 22 22 21 21 20 20 22 23 25 29 33 35 36 37 38 41 43 42 40 38 36 36 35 33 31 32 34 36 36 36 37 33 32 33 32
22 26 27 25 24 22 23 23 21 21 20 20 19 21 22 24 26 28 30 34 37 37 38 39 41 42 41 40 38 37 35 34 34 33 35 37 38 37 36 33 30 31 32
27 27 23 22 24 25 24 23 23 24 23 24 25 25 25 26 27 28 29 33 35 37 38 37 38 40 41 40 40 39 38 36 36 35 36 37 37 35 33 32 31 31 30
24 21 22 24 26 25 25 24 25 25 24 25 26 27 28 28 29 30 31 33 34 36 35 35 35 37 39 39 39 39 40 39 39 38 38 39 38 36 34 34 32 31 29
18 19 22 26 26 27 28 28 27 28 28 27 28 30 29 29 30 31 33 32 33 37 35 33 33 34 36 38 39 39 39 40 40 40 40 39 37 37 36 31 29 29 26
24 27 28 28 29 31 33 34 33 32 31 32 32 32 34 32 31 32 34 34 33 35 36 34 34 34 33 35 37 37 38 38 39 40 41 39 37 38 34 31 29 26 21
33 35 37 37 38 39 40 42 42 38 33 30 32 35 39 40 37 35 35 34 33 34 36 35 34 33 34 33 33 33 34 35 36 38 38 37 35 34 32 29 29 28 24
39 42 44 44 45 46 47 47 48 47 44 40 38 39 41 43 44 39 37 35 35 34 34 33 32 31 30 29 28 29 30 31 32 31 31 29 28 30 29 29 29 27 26
44 46 47 48 48 49 51 52 51 49 49 50 46 43 46 46 43 41 39 37 36 35 31 31 30 28 27 24 23 24 24 24 26 25 25 24 25 25 24 26 23 22 20
48 48 50 52 52 53 54 55 54 51 53 56 54 53 51 49 44 43 42 41 39 37 31 29 29 29 28 24 22 21 19 20 21 23 22 23 24 18 22 20 17 19 15
55 56 58 59 62 61 58 51 49 54 60 65 64 64 60 53 53 52 51 48 42 37 33 27 28 27 26 21 20 19 16 16 21 23 21 25 26 21 15 15 14 12 10
58 59 63 65 59 54 53 53 63 67 71 73 72 70 66 59 57 56 52 48 43 37 34 28 28 25 24 21 20 18 15 17 21 20 20 21 21 23 19 15 11 11 14
61 60 65 66 73 80 77 77 78 75 71 70 71 73 73 70 64 58 50 45 42 38 35 30 28 25 24 21 20 19 13 15 18 21 21 20 19 18 16 12 12 13 14
64 71 75 83 82 82 82 82 80 77 75 74 78 78 72 67 63 58 48 45 43 40 36 30 28 27 26 22 21 22 16 15 18 19 18 17 16 16 13 11 13 14 14
83 89 88 88 87 87 87 85 84 85 86 85 81 78 75 70 63 58 51 48 46 43 39 32 30 28 26 23 22 22 18 19 21 19 16 15 15 15 14 14 14 13 12
87 90 92 91 91 91 91 88 84 84 82 77 72 69 64 60 55 52 49 52 49 44 41 35 31 30 28 25 24 22 20 22 22 21 17 16 16 15 14 14 13 13 14
88 89 88 88 84 81 78 77 73 67 61 53 46 45 42 38 38 42 47 51 51 44 40 39 34 31 29 28 26 23 21 20 20 18 17 16 18 18 17 15 14 14 14
74 72 70 65 59 57 55 54 51 46 42 40 37 37 36 36 38 37 37 45 52 49 47 40 39 34 30 28 27 24 21 18 19 18 17 18 21 21 16 14 14 15 15
55 51 47 42 43 42 40 39 38 38 37 38 39 40 43 43 39 39 39 41 53 52 45 41 43 36 29 27 26 23 21 20 19 19 20 20 21 19 15 16 16 16 16
38 35 37 40 38 38 40 37 36 39 42 42 42 42 41 41 40 35 33 39 54 55 38 38 43 34 29 26 24 20 19 21 20 20 20 21 21 19 14 15 16 16 16
39 39 41 42 43 44 45 45 42 39 41 43 43 41 39 38 35 33 36 42 58 64 48 44 39 31 27 25 24 21 21 24 24 21 19 18 17 17 17 17 16 15 15
53 54 55 57 58 58 56 53 52 50 46 43 39 38 36 35 33 35 42 44 61 69 54 48 37 30 30 29 26 25 26 28 25 21 17 15 16 16 16 15 14 13 13
Wind_Direction
295 300 303 299 296 292 291 296 300 296 290 282 293 300 298 297 297 295 293 291 288 285 281 280 281 280 279 280 281 283 281 280 276 274 276 275 273 270 266 264 266 268 270
301 303 302 293 297 300 300 301 298 297 297 297 297 300 300 299 299 298 297 294 290 287 284 282 280 279 279 282 285 285 281 277 275 273 272 273 276 272 265 262 263 269 272
303 301 293 296 300 302 307 307 307 308 309 311 312 311 310 307 306 304 301 296 290 285 282 280 279 279 279 279 280 280 278 275 273 272 270 273 276 268 265 261 264 272 276
294 291 295 297 300 304 306 306 311 311 312 315 316 318 319 317 317 314 308 304 298 289 282 278 276 276 276 276 276 278 277 276 275 271 271 274 277 276 270 266 268 270 276
284 286 291 295 296 299 300 300 297 297 301 304 310 317 319 321 322 323 319 313 306 299 290 282 276 274 275 276 275 278 278 276 276 275 273 273 273 272 274 270 266 270 273
288 295 295 294 293 292 289 288 287 290 295 296 300 305 308 314 319 320 323 320 314 307 297 286 279 274 273 273 274 275 277 277 273 273 274 272 272 271 269 267 262 267 269
288 294 293 287 278 276 276 279 285 290 291 289 292 296 301 305 311 318 322 325 322 312 303 294 282 275 273 274 274 274 274 273 271 270 270 268 269 269 267 267 266 265 264
291 287 275 268 270 273 275 281 290 291 290 292 298 303 308 309 312 320 326 327 328 321 309 299 286 275 271 273 274 273 271 270 268 266 265 266 267 267 264 264 266 265 262
290 276 267 267 271 278 286 294 300 306 308 308 309 309 311 314 317 321 322 326 332 329 319 305 295 285 275 272 272 272 269 267 265 263 264 267 266 265 264 262 263 262 258
295 290 285 285 288 293 300 308 312 310 310 311 312 311 309 312 315 314 314 318 324 328 327 313 300 295 289 280 274 271 268 265 263 262 263 263 264 266 262 259 253 247 240
296 297 296 297 299 303 308 312 310 307 304 303 306 307 307 309 311 311 310 310 315 325 329 321 305 300 298 290 283 277 270 266 265 265 264 264 264 263 260 250 240 225 225
299 300 300 302 303 304 305 306 307 307 304 300 304 306 304 304 306 307 305 306 308 317 325 325 312 308 303 296 290 281 272 269 269 270 270 262 258 256 248 238 229 219 220
295 294 295 297 298 298 298 299 299 301 301 301 300 303 303 301 301 303 304 303 306 310 318 322 315 314 310 304 295 290 279 271 261 259 259 262 255 236 227 216 219 227 225
288 288 288 289 289 289 291 293 294 295 298 297 297 297 299 297 296 300 303 302 302 306 310 313 311 309 311 310 306 306 291 265 251 255 259 259 252 228 218 225 225 239 243
289 289 290 290 289 287 285 286 288 289 294 293 291 294 295 294 292 294 297 297 297 297 302 305 302 304 307 304 297 302 282 256 246 241 249 249 245 239 224 222 234 234 217
285 286 287 283 277 277 282 285 290 292 291 290 291 291 287 287 290 291 291 289 288 287 294 298 296 297 300 302 292 298 273 255 253 256 246 238 235 241 222 214 208 198 199
272 271 273 276 292 297 294 289 287 287 289 288 285 287 287 288 288 287 285 281 279 279 284 289 287 289 290 295 289 289 282 262 263 258 243 239 245 249 228 202 194 203 209
277 280 281 283 288 288 287 284 283 284 285 283 282 282 281 282 281 281 277 268 266 269 275 278 277 280 282 284 284 278 278 274 257 248 247 249 238 229 217 207 207 207 204
285 287 287 287 288 287 285 284 283 282 283 283 282 280 277 279 279 274 269 260 257 257 263 268 268 272 273 274 277 277 265 262 250 243 240 237 231 230 233 224 210 199 201
285 285 286 287 290 291 290 289 288 286 286 285 281 276 276 276 270 263 254 252 250 248 253 259 260 263 265 263 266 272 263 253 247 242 236 231 231 227 217 210 207 208 210
290 289 289 290 293 294 292 292 291 290 286 281 274 269 268 266 260 253 244 241 240 238 245 252 255 257 257 258 257 261 261 245 242 235 228 218 205 194 182 183 195 204 208
297 297 296 297 296 294 291 290 289 285 278 268 263 267 270 271 268 262 256 241 223 227 234 244 250 250 249 250 250 253 253 232 222 213 200 189 183 180 186 201 214 216 211
301 300 300 301 302 300 296 292 287 285 282 277 271 276 276 274 269 260 251 243 216 211 226 241 247 241 239 242 244 245 237 215 203 205 201 193 188 192 203 204 206 209 212
312 307 306 306 307 302 298 295 288 283 282 281 278 276 268 266 266 255 243 237 227 212 211 230 236 227 227 230 233 226 213 197 192 194 192 190 193 200 203 203 210 219 223
308 303 302 301 300 300 297 292 288 287 285 282 278 271 265 268 265 251 243 239 230 217 208 210 216 212 214 217 213 199 190 184 188 191 186 189 197 208 211 211 220 229 224
311 304 300 299 301 301 297 291 282 281 285 285 278 267 265 265 260 256 257 241 214 207 206 200 193 195 202 203 195 187 184 185 192 197 195 194 192 194 200 212 226 228 224
Height
5867 5864 5861 5858 5856 5855 5853 5851 5847 5845 5843 5842 5841 5840 5837 5835 5832 5829 5827 5824 5822 5820 5820 5819 5817 5816 5815 5815 5815 5814 5813 5811 5811 5810 5811 5812 5812 5815 5815 5814 5814 5814 5815
5860 5857 5854 5852 5850 5849 5848 5845 5841 5839 5837 5835 5833 5832 5830 5827 5824 5821 5818 5816 5814 5811 5809 5808 5807 5806 5806 5805 5803 5802 5802 5802 5801 5799 5800 5802 5805 5806 5805 5804 5805 5805 5805
5853 5851 5849 5846 5843 5842 5840 5836 5834 5832 5830 5828 5826 5823 5821 5819 5816 5813 5810 5807 5804 5801 5799 5797 5797 5797 5795 5794 5793 5792 5791 5792 5792 5790 5790 5792 5795 5796 5796 5796 5796 5796 5796
5848 5846 5844 5841 5837 5835 5834 5831 5828 5826 5824 5822 5819 5817 5815 5812 5809 5806 5803 5799 5796 5793 5790 5788 5787 5787 5786 5785 5784 5783 5783 5782 5782 5782 5781 5781 5785 5786 5786 5787 5787 5786 5786
5844 5841 5839 5836 5833 5832 5830 5827 5825 5822 5820 5816 5813 5811 5809 5806 5802 5798 5794 5791 5787 5783 5779 5776 5775 5775 5774 5774 5774 5774 5773 5773 5772 5772 5772 5772 5773 5775 5776 5777 5776 5776 5776
5838 5836 5834 5832 5829 5827 5824 5822 5819 5816 5813 5810 5806 5803 5801 5798 5795 5792 5788 5783 5778 5772 5768 5764 5763 5763 5762 5762 5762 5763 5763 5762 5762 5762 5762 5762 5762 5763 5763 5765 5766 5766 5766
5834 5832 5829 5826 5823 5821 5819 5817 5815 5811 5808 5804 5801 5797 5795 5792 5789 5785 5781 5775 5770 5764 5757 5753 5752 5751 5750 5750 5750 5751 5752 5752 5752 5751 5751 5750 5751 5751 5751 5753 5755 5755 5756
5829 5827 5823 5820 5817 5815 5812 5810 5808 5805 5802 5799 5795 5791 5788 5785 5781 5777 5772 5766 5762 5756 5750 5745 5742 5741 5740 5739 5738 5739 5739 5740 5741 5741 5740 5740 5739 5740 5740 5742 5743 5745 5747
5822 5820 5817 5814 5812 5809 5806 5804 5802 5798 5793 5789 5785 5781 5778 5776 5773 5768 5765 5759 5754 5750 5743 5738 5735 5732 5731 5730 5729 5728 5727 5728 5729 5729 5728 5728 5728 5728 5729 5731 5733 5735 5737
5814 5812 5809 5806 5802 5799 5796 5793 5790 5786 5782 5779 5775 5771 5768 5767 5765 5762 5758 5753 5747 5742 5736 5731 5727 5723 5722 5720 5719 5718 5717 5717 5717 5717 5717 5716 5716 5716 5717 5720 5723 5726 5730
5805 5802 5799 5796 5793 5789 5785 5780 5777 5774 5771 5768 5766 5764 5760 5758 5756 5754 5751 5747 5742 5736 5730 5723 5719 5715 5712 5710 5709 5707 5706 5706 5706 5706 5705 5704 5704 5704 5707 5710 5713 5717 5723
5795 5791 5787 5784 5780 5776 5773 5769 5766 5763 5760 5758 5756 5753 5751 5749 5745 5744 5741 5739 5735 5730 5724 5718 5714 5710 5705 5702 5700 5697 5696 5695 5696 5696 5694 5694 5695 5697 5700 5701 5705 5710 5715
5783 5779 5776 5773 5769 5766 5763 5759 5755 5751 5748 5746 5744 5743 5740 5738 5735 5733 5732 5729 5725 5720 5716 5711 5708 5705 5701 5697 5694 5690 5688 5688 5689 5689 5689 5689 5691 5691 5692 5693 5699 5703 5708
5769 5765 5761 5758 5756 5753 5750 5747 5743 5738 5735 5733 5731 5731 5731 5727 5725 5724 5722 5720 5716 5711 5708 5705 5702 5700 5695 5692 5689 5683 5682 5683 5684 5683 5685 5686 5687 5688 5691 5693 5697 5701 5705
5757 5752 5747 5743 5739 5737 5734 5732 5728 5724 5720 5718 5718 5717 5717 5717 5714 5713 5712 5711 5708 5704 5701 5699 5696 5693 5690 5687 5686 5682 5679 5679 5681 5680 5680 5681 5684 5686 5688 5690 5695 5698 5700
5742 5737 5732 5729 5727 5723 5718 5714 5712 5709 5706 5703 5702 5701 5700 5701 5701 5701 5699 5698 5698 5696 5693 5692 5690 5688 5685 5682 5682 5679 5676 5676 5677 5679 5679 5679 5680 5683 5684 5686 5690 5694 5697
5727 5722 5718 5711 5707 5703 5699 5696 5694 5691 5688 5686 5684 5684 5683 5683 5683 5684 5687 5686 5686 5686 5685 5684 5682 5681 5680 5677 5676 5676 5673 5672 5672 5673 5676 5676 5678 5680 5680 5683 5687 5691 5694
5706 5701 5696 5689 5683 5678 5674 5672 5669 5666 5664 5663 5662 5662 5662 5662 5663 5665 5669 5671 5673 5675 5674 5675 5674 5674 5674 5672 5671 5672 5670 5670 5670 5670 5671 5673 5673 5675 5677 5680 5684 5688 5691
5684 5675 5669 5664 5659 5654 5648 5646 5645 5641 5638 5636 5634 5635 5637 5639 5640 5645 5649 5654 5658 5661 5662 5664 5665 5666 5666 5664 5664 5665 5665 5666 5666 5666 5667 5668 5670 5672 5675 5679 5682 5684 5688
5660 5650 5641 5635 5629 5622 5614 5614 5615 5613 5612 5609 5607 5608 5609 5612 5615 5620 5629 5635 5640 5645 5649 5653 5655 5656 5657 5656 5658 5659 5659 5659 5659 5660 5662 5665 5666 5668 5671 5676 5679 5682 5686
5634 5624 5615 5612 5607 5597 5588 5587 5587 5586 5585 5584 5582 5583 5586 5589 5593 5597 5604 5613 5623 5629 5636 5641 5644 5645 5647 5647 5650 5651 5653 5653 5654 5655 5657 5659 5663 5665 5670 5674 5678 5681 5683
5607 5598 5589 5586 5582 5575 5568 5566 5565 5565 5564 5566 5568 5569 5570 5574 5578 5583 5587 5592 5603 5615 5623 5629 5633 5634 5636 5638 5641 5643 5646 5647 5649 5651 5653 5655 5660 5663 5668 5672 5675 5678 5680
5588 5580 5573 5570 5566 5561 5555 5552 5550 5549 5549 5550 5552 5553 5554 5555 5559 5564 5571 5577 5585 5598 5608 5616 5622 5623 5626 5630 5633 5636 5638 5641 5645 5647 5649 5653 5657 5661 5666 5670 5673 5676 5678
5574 5569 5563 5558 5554 5549 5544 5540 5538 5535 5534 5535 5536 5537 5538 5539 5541 5547 5554 5560 5567 5576 5590 5601 5609 5612 5617 5621 5626 5629 5631 5636 5641 5644 5646 5650 5655 5658 5661 5665 5669 5672 5674
5568 5560 5553 5546 5541 5536 5531 5527 5524 5521 5518 5517 5518 5519 5520 5520 5523 5530 5537 5545 5551 5559 5575 5588 5596 5603 5609 5615 5620 5623 5627 5632 5637 5640 5643 5647 5651 5654 5658 5663 5666 5668 5670
5555 5547 5539 5530 5523 5516 5510 5506 5504 5502 5500 5500 5502 5503 5504 5505 5508 5512 5514 5513 5525 5544 5564 5573 5582 5594 5602 5608 5614 5619 5623 5628 5633 5637 5640 5643 5647 5651 5656 5660 5662 5664 5666